This is the latest recevied weather packets stored in our database for station/object W8CEN. If no packets are shown the sender has not sent any weather packets the latest 10 day(s).
| Time | Temp. | Humidity | Pressure | Rain* | Wind** | Luminosity | Snow |
|---|---|---|---|---|---|---|---|
| 1778007103 | 11.67° C | 90% | 986.8 hPa | 4.32 mm | - | 86 W/m² | - |
| 1778006800 | 12.22° C | 89% | 987.2 hPa | 3.05 mm | - | 79 W/m² | - |
| 1778006497 | 12.22° C | 89% | 987.1 hPa | 3.05 mm | - | 75 W/m² | - |
| 1778006193 | 12.78° C | 87% | 986.9 hPa | 3.56 mm | - | 83 W/m² | - |
| 1778005891 | 12.78° C | 86% | 986.7 hPa | 3.05 mm | - | 60 W/m² | - |
| 1778005587 | 13.33° C | 86% | 986.8 hPa | 3.05 mm | - | 90 W/m² | - |
| 1778005284 | 13.33° C | 85% | 986.6 hPa | 3.05 mm | - | 49 W/m² | - |
| 1778004981 | 13.33° C | 83% | 986.5 hPa | 3.05 mm | - | 79 W/m² | - |
| 1778004678 | 13.89° C | 81% | 986.3 hPa | 1.78 mm | - | 81 W/m² | - |
| 1778004374 | 13.89° C | 78% | 986.4 hPa | 1.27 mm | - | 97 W/m² | - |
| 1778004072 | 13.89° C | 75% | 986.2 hPa | 1.27 mm | - | 78 W/m² | - |
| 1778003767 | 14.44° C | 73% | 986.1 hPa | 0 mm | - | 91 W/m² | - |
| 1778003464 | 14.44° C | 73% | 986.1 hPa | 0 mm | - | 119 W/m² | - |
| 1778003161 | 15° C | 71% | 986.2 hPa | 0 mm | - | 111 W/m² | - |
| 1778002857 | 15° C | 69% | 986.1 hPa | 0 mm | - | 135 W/m² | - |
| 1778002554 | 15° C | 67% | 986.1 hPa | 0 mm | - | 129 W/m² | - |
| 1778002250 | 15.56° C | 69% | 986.1 hPa | 0 mm | - | 111 W/m² | - |
| 1778001948 | 15.56° C | 69% | 986.3 hPa | 0 mm | - | 130 W/m² | - |
| 1778001644 | 15.56° C | 67% | 986.3 hPa | 0 mm | - | 154 W/m² | - |
| 1778001339 | 15° C | 70% | 986.3 hPa | 0 mm | - | 117 W/m² | - |
| 1778001036 | 15.56° C | 71% | 986.5 hPa | 0 mm | - | 78 W/m² | - |
| 1778000733 | 15.56° C | 72% | 986.2 hPa | 0 mm | - | 85 W/m² | - |
| 1778000430 | 15.56° C | 73% | 986.3 hPa | 0 mm | - | 100 W/m² | - |
| 1778000125 | 15.56° C | 73% | 986.2 hPa | 0 mm | - | 100 W/m² | - |
| 1777999821 | 15.56° C | 72% | 986.2 hPa | 0 mm | - | 75 W/m² | - |
* Rain latest hour (hover to see other rain measurements)
** Current wind speed in m/s (hover to see current wind gust speed)